682  
ASUS44 KJAN 130010  
RWRMS  
 
MISSISSIPPI HOURLY WEATHER ROUNDUP  
NATIONAL WEATHER SERVICE JACKSON MS  
700 PM CDT WED AUG 12 2020  
 
NOTE: "FAIR: INDICATES FEW OR NO CLOUDS BELOW 12,000 FEET WITH NO  
SIGNIFICANT WEATHER AND/OR S TO VISIBILITY
.  
 
MSZ001>002-007>008-010>013-018>021-025>028-034>036-130100-  
NORTHWEST MISSISSIPPI  
 
CITY SKY/WX TMP DP RH WIND PRES REMARKS
 
BATESVILLE FAIR 88 73 62 CALM 29.94F HX 96  
CLARKSDALE N/A 86 75 70 CALM 29.96S HX 95  
CLEVELAND FAIR 86 73 66 CALM 29.95F HX 93  
GREENWOOD PTCLDY 86 74 67 SE9 29.95S HX 94  
6HR MIN TEMP: 82; 6HR MAX TEMP: 92; 6HR PCP: 0.03;  
 
GREENVILLE MOCLDY 85 75 72 NE5 29.93F HX 93  
6HR MIN TEMP: 85; 6HR MAX TEMP: 92;  
 
OLIVE BRANCH PTCLDY 88 75 66 S9 29.95S HX 97  
OXFORD FAIR 82 72 69 SE3 29.97F  
TUNICA PTCLDY 86 70 58 CALM 29.96R HX 90  
WINONA FAIR 81 74 78 CALM 29.98S  

 
 
MSZ003>006-009-014>017-022>024-029>033-037>039-130100-  
NORTHEAST MISSISSIPPI  
 
CITY SKY/WX TMP DP RH WIND PRES REMARKS
 
ABERDEEN FAIR 84 84 100 SW6 29.97S HX 104  
COLUMBUS AFB MOCLDY 80 73 79 SW6 29.97R  
6HR MIN TEMP: 80; 6HR MAX TEMP: 92;  
 
CORINTH FAIR 88 73 62 E3 29.97S HX 96  
GOLDN TRIANGLE LGT RAIN 76 74 93 S5 29.99R  
STARKVILLE FAIR 77 70 78 CALM 29.99S  
TUPELO LGT RAIN 87 75 67 CALM 29.96S HX 96  
6HR MIN TEMP: 70; 6HR MAX TEMP: 94; 6HR PCP: TRACE;  
 

 
 
MSZ040-058-130100-  
CENTRAL MISSISSIPPI  
 
CITY SKY/WX TMP DP RH WIND PRES REMARKS
 
JACKSON INTL MOCLDY 85 72 65 SE7 29.96F HX 91  
6HR MIN TEMP: 85; 6HR MAX TEMP: 96; 6HR PCP: TRACE;  
 
JACKSON HAWKNS RAIN 79 74 84 N7 29.97R  
6HR MIN TEMP: 79; 6HR MAX TEMP: 95; 6HR PCP: 0.19;  
 
MADISON FAIR 82 72 69 SE5 29.97R  
MERIDIAN KEY CLOUDY 81 73 76 NW5 29.99R  
6HR MIN TEMP: 81; 6HR MAX TEMP: 94;  
 
MERIDIAN NAS CLOUDY 77 70 79 NE3 29.99R  
6HR MIN TEMP: 77; 6HR MAX TEMP: 92;  
 
PRESTON CLOUDY 76 72 87 E5 29.95F  
RAYMOND N/A 90 81 74 W5 29.95S HX 108  
VICKSBURG VKS CLEAR 84 77 79 CALM 29.94S HX 94  

 
 
MSZ059>079-130100-  
SOUTH MISSISSIPPI  
 
CITY SKY/WX TMP DP RH WIND PRES REMARKS
 
BROOKHAVEN MOCLDY 82 77 83 VRB3 30.00S HX 91  
HATTIESBURG CLOUDY 76 71 85 SE5 29.99F  
6HR MIN TEMP: 75; 6HR MAX TEMP: 91; 6HR PCP: 0.17;  
 
LAUREL CLEAR 75 73 93 S5 30.00R  
MCCOMB LGT RAIN 78 75 90 SE3 29.99R  
6HR MIN TEMP: 78; 6HR MAX TEMP: 95; 6HR PCP: 0.08;  
 
NATCHEZ PTCLDY 88 75 65 SW3 29.96S HX 97  
6HR MIN TEMP: 88; 6HR MAX TEMP: 92;  
 
PINE BELT CLOUDY 76 75 97 S3 30.00S  
6HR MIN TEMP: 74; 6HR MAX TEMP: 94; 6HR PCP: 0.35;  
 

 
 
MSZ080>082-130100-  
COASTAL MISSISSIPPI  
 
CITY SKY/WX TMP DP RH WIND PRES REMARKS
 
BAY ST LOUIS MOCLDY 81 77 89 CALM 29.98S  
BILOXI CLOUDY 81 74 79 NE6 29.99S  
6HR MIN TEMP: 81; 6HR MAX TEMP: 92;  
 
PASCAGOULA CLOUDY 81 73 76 N10G21 30.00R  
6HR MIN TEMP: 81; 6HR MAX TEMP: 96; 6HR PCP: TRACE;  
 
GULFPORT CLOUDY 82 71 69 N5 29.98S  
6HR MIN TEMP: 82; 6HR MAX TEMP: 93;  
 

 
 
LAZ007>009-015>016-023>026-130100-  
NORTHEAST LOUISIANA  
 
CITY SKY/WX TMP DP RH WIND PRES REMARKS
 
BASTROP CLOUDY 85 74 70 CALM 29.95F HX 92  
TALLULAH/VBURG PTCLDY 89 73 59 E3 29.94F HX 97  
6HR MIN TEMP: 74; 6HR MAX TEMP: 95; 6HR PCP: 0.74;  
 
VIDALIA FAIR 86 78 75 CALM 29.94R HX 98  

 
 
 
CLICK HERE TO GO TO PREVIOUS BULLETINS.

The Nexlab MS Page Main Text Page